Location: Noordwijk
(52.2400°N, 4.4500°E)
Time: 01:33:02
(UTC+00:00)

TIGRISAT - Pass Details

Date: 30 November 2022
Orbit: 601 x 684 km, 97.7° (Epoch: 29 January)

Event Time Altitude Azimuth Distance (km) Brightness Sun altitude
Rises 05:08:40 0° 180° (S) 2,877 ? -20.3°
Reaches altitude 10° 05:10:53 10° 186° (S) 1,988 ? -19.9°
Maximum altitude 05:15:03 48° 261° (W) 836 ? -19.3°
Enters shadow 05:15:50 43° 293° (WNW) 902 ? -19.2°
